User: anonymous   Login
Location: Azul
(36.7830°S, 59.8500°W)
Time: 00:56:56
(UTC-03:00)
Language:

HuskySat-1 - Orbit

View from above orbital plane
View from above orbital plane
View from above satellite
View from above satellite

Ground track
Ground track

The orbit data is extracted from the following two-line orbital elements,

1 45117U 19071G   21295.76312688  .00006210  00000-0  17386-3 0  9993
2 45117  51.6392 137.4115 0009372  38.6895 321.4759 15.37959276 96761
Epoch (UTC): 22 October 2021 18:18:54
Eccentricity: 0.0009372
inclination: 51.6392°
perigee height: 446 km
apogee height: 458 km
right ascension of ascending node: 137.4115°
argument of perigee: 38.6895°
revolutions per day: 15.37959276
mean anomaly at epoch: 321.4759°
orbit number at epoch: 9676

The dashed part of the orbit path shows where the satellite is in the earth's shadow,  

DLR